AAL137 EGLL-KLAX

Flight info

Callsign AAL137
Flight time N/A
Altitude 30000
Route UMLAT T418 WELIN T420 TNT UL28 PENIL M144 BAGSO DCT NEBIN/M085F310 DCT 54N020W 54N030W 5330N04000W 52N050W DCT TUDEP/N0496F320 N532A ANATI DCT REZIN DCT SAW/N0489F340 DCT RWF DCT BFF J157 MTU DCT PURSE BOGET2
Aircraft B77W/H-SDE1E2E3FGHIJ2J3J4J5M1RWXY/LB1D1

Departure

Time N/A
Airport London Heathrow Airport (EGLL)

Arrival

Time 2026-04-22 13:35
Airport Los Angeles International Airport (KLAX)
Time Latitude Longitude Altitude Speed Heading
2026-04-22 12:55 35.66034 -115.11765 36024 ft 417 kts 228°
2026-04-22 12:56 35.63805 -115.14043 36024 ft 411 kts 229°
2026-04-22 12:56 35.59405 -115.18541 36024 ft 415 kts 229°
2026-04-22 12:57 35.55361 -115.23468 36030 ft 406 kts 236°
2026-04-22 12:57 35.51615 -115.28618 36022 ft 405 kts 236°
2026-04-22 12:58 35.47834 -115.33777 36031 ft 407 kts 236°
2026-04-22 12:58 35.44046 -115.38914 36033 ft 406 kts 235°
2026-04-22 12:59 35.40277 -115.44012 36038 ft 408 kts 235°
2026-04-22 12:59 35.36476 -115.49137 36037 ft 405 kts 236°
2026-04-22 13:00 35.32684 -115.54244 36038 ft 407 kts 236°
2026-04-22 13:00 35.28882 -115.59351 35957 ft 402 kts 235°
2026-04-22 13:00 35.27019 -115.61849 35274 ft 401 kts 235°
2026-04-22 13:01 35.25149 -115.64359 34496 ft 400 kts 235°
2026-04-22 13:01 35.23255 -115.66895 33847 ft 398 kts 235°
2026-04-22 13:01 35.21377 -115.69420 33302 ft 416 kts 234°
2026-04-22 13:01 35.19382 -115.72100 32588 ft 431 kts 234°
2026-04-22 13:02 35.17367 -115.74793 31840 ft 433 kts 233°
2026-04-22 13:02 35.15345 -115.77492 31093 ft 433 kts 234°
2026-04-22 13:02 35.13344 -115.80196 30580 ft 426 kts 236°
2026-04-22 13:02 35.11607 -115.83089 30201 ft 418 kts 242°
2026-04-22 13:03 35.10080 -115.86079 29781 ft 420 kts 243°
2026-04-22 13:03 35.08558 -115.89091 29319 ft 419 kts 243°
2026-04-22 13:03 35.07043 -115.92081 28847 ft 415 kts 242°
2026-04-22 13:03 35.05537 -115.95049 28377 ft 410 kts 242°
2026-04-22 13:04 35.04047 -115.97984 27916 ft 406 kts 242°
2026-04-22 13:04 35.02552 -116.00925 27445 ft 404 kts 242°
2026-04-22 13:04 35.01080 -116.03818 26984 ft 402 kts 242°
2026-04-22 13:04 34.99619 -116.06686 26524 ft 399 kts 242°
2026-04-22 13:05 34.98170 -116.09528 26061 ft 397 kts 242°
2026-04-22 13:05 34.96716 -116.12379 25595 ft 394 kts 242°
2026-04-22 13:05 34.95283 -116.15185 25133 ft 391 kts 241°
2026-04-22 13:05 34.93857 -116.17974 24663 ft 388 kts 241°
2026-04-22 13:06 34.92437 -116.20752 24208 ft 385 kts 242°
2026-04-22 13:06 34.91183 -116.23634 23821 ft 379 kts 246°
2026-04-22 13:06 34.90064 -116.26527 23784 ft 381 kts 247°
2026-04-22 13:06 34.88938 -116.29440 23775 ft 383 kts 246°
2026-04-22 13:07 34.87804 -116.32371 23742 ft 384 kts 247°
2026-04-22 13:07 34.86661 -116.35321 23667 ft 383 kts 246°
2026-04-22 13:07 34.85533 -116.38226 23578 ft 383 kts 247°
2026-04-22 13:07 34.84399 -116.41145 23491 ft 383 kts 246°
2026-04-22 13:08 34.83256 -116.44083 23403 ft 383 kts 247°
2026-04-22 13:08 34.82128 -116.46981 23321 ft 383 kts 246°
2026-04-22 13:08 34.80990 -116.49899 23235 ft 382 kts 247°
2026-04-22 13:08 34.79847 -116.52841 23139 ft 382 kts 248°
2026-04-22 13:09 34.78951 -116.55833 23063 ft 381 kts 255°
2026-04-22 13:09 34.78424 -116.58982 22897 ft 383 kts 262°
2026-04-22 13:09 34.78106 -116.62188 22658 ft 381 kts 263°
2026-04-22 13:09 34.77800 -116.65373 22427 ft 378 kts 262°
2026-04-22 13:10 34.77497 -116.68533 22224 ft 378 kts 262°
2026-04-22 13:10 34.77192 -116.71680 22021 ft 377 kts 262°
2026-04-22 13:10 34.76884 -116.74860 21796 ft 377 kts 262°
2026-04-22 13:10 34.76577 -116.78009 21584 ft 375 kts 262°
2026-04-22 13:11 34.76270 -116.81155 21374 ft 375 kts 263°
2026-04-22 13:11 34.75965 -116.84270 21160 ft 373 kts 262°
2026-04-22 13:11 34.75660 -116.87373 20937 ft 372 kts 262°
2026-04-22 13:11 34.75347 -116.90481 20732 ft 372 kts 262°
2026-04-22 13:12 34.75033 -116.93594 20505 ft 372 kts 262°
2026-04-22 13:12 34.74717 -116.96718 20279 ft 369 kts 262°
2026-04-22 13:12 34.74404 -116.99804 20067 ft 369 kts 263°
2026-04-22 13:12 34.74091 -117.02878 19852 ft 368 kts 263°
2026-04-22 13:13 34.73779 -117.05942 19636 ft 366 kts 263°
2026-04-22 13:13 34.73464 -117.09029 19363 ft 367 kts 263°
2026-04-22 13:13 34.73151 -117.12089 19077 ft 363 kts 263°
2026-04-22 13:13 34.72842 -117.15097 18850 ft 363 kts 263°
2026-04-22 13:14 34.72529 -117.18134 18638 ft 362 kts 263°
2026-04-22 13:14 34.72219 -117.21146 18434 ft 362 kts 263°
2026-04-22 13:14 34.71904 -117.24185 18238 ft 360 kts 263°
2026-04-22 13:14 34.71595 -117.27171 18035 ft 359 kts 263°
2026-04-22 13:15 34.71283 -117.30177 17827 ft 357 kts 263°
2026-04-22 13:15 34.70970 -117.33176 17622 ft 357 kts 263°
2026-04-22 13:15 34.70660 -117.36150 17412 ft 356 kts 263°
2026-04-22 13:15 34.70346 -117.39153 17208 ft 356 kts 263°
2026-04-22 13:16 34.70034 -117.42119 17005 ft 354 kts 263°
2026-04-22 13:16 34.69724 -117.45071 16799 ft 354 kts 263°
2026-04-22 13:16 34.69415 -117.48002 16587 ft 352 kts 263°
2026-04-22 13:16 34.69103 -117.50944 16382 ft 353 kts 263°
2026-04-22 13:17 34.68790 -117.53886 16177 ft 350 kts 263°
2026-04-22 13:17 34.68479 -117.56803 15969 ft 350 kts 263°
2026-04-22 13:17 34.68165 -117.59746 15766 ft 351 kts 263°
2026-04-22 13:17 34.67849 -117.62698 15558 ft 349 kts 263°
2026-04-22 13:18 34.67542 -117.65597 15357 ft 349 kts 263°
2026-04-22 13:18 34.67234 -117.68512 15166 ft 348 kts 263°
2026-04-22 13:18 34.66927 -117.71414 14965 ft 347 kts 263°
2026-04-22 13:18 34.66620 -117.74296 14764 ft 347 kts 263°
2026-04-22 13:19 34.66311 -117.77206 14561 ft 345 kts 263°
2026-04-22 13:19 34.66003 -117.80088 14366 ft 346 kts 263°
2026-04-22 13:19 34.65693 -117.82986 14170 ft 345 kts 263°
2026-04-22 13:19 34.65299 -117.85834 13974 ft 345 kts 257°
2026-04-22 13:20 34.64530 -117.88586 13687 ft 346 kts 249°
2026-04-22 13:20 34.63577 -117.91287 13244 ft 345 kts 249°
2026-04-22 13:20 34.62631 -117.93932 12823 ft 343 kts 249°
2026-04-22 13:20 34.61688 -117.96564 12422 ft 342 kts 249°
2026-04-22 13:21 34.60738 -117.99219 12026 ft 341 kts 249°
2026-04-22 13:21 34.59799 -118.01841 11631 ft 339 kts 249°
2026-04-22 13:21 34.58859 -118.04462 11233 ft 339 kts 249°
2026-04-22 13:21 34.57933 -118.07045 10842 ft 336 kts 249°
2026-04-22 13:22 34.57010 -118.09616 10451 ft 331 kts 249°
2026-04-22 13:22 34.56091 -118.12174 10065 ft 326 kts 249°
2026-04-22 13:22 34.55193 -118.14673 9666 ft 322 kts 249°
2026-04-22 13:22 34.54311 -118.17127 9246 ft 319 kts 249°
2026-04-22 13:23 34.53431 -118.19571 8830 ft 316 kts 249°
2026-04-22 13:23 34.52552 -118.21999 8375 ft 313 kts 246°
2026-04-22 13:23 34.51300 -118.24071 7964 ft 305 kts 222°
2026-04-22 13:23 34.49520 -118.25366 7915 ft 289 kts 207°
2026-04-22 13:24 34.47667 -118.26202 7854 ft 278 kts 202°
2026-04-22 13:24 34.45863 -118.26862 7796 ft 267 kts 200°
2026-04-22 13:24 34.44060 -118.27459 7758 ft 266 kts 199°
2026-04-22 13:24 34.42280 -118.28027 7724 ft 267 kts 199°
2026-04-22 13:25 34.40479 -118.28595 7673 ft 267 kts 199°
2026-04-22 13:25 34.38659 -118.29166 7625 ft 267 kts 199°
2026-04-22 13:25 34.36866 -118.29730 7581 ft 267 kts 199°
2026-04-22 13:25 34.35074 -118.30293 7536 ft 266 kts 199°
2026-04-22 13:26 34.33272 -118.30858 7494 ft 266 kts 199°
2026-04-22 13:26 34.31455 -118.31348 7444 ft 268 kts 192°
2026-04-22 13:26 34.29581 -118.31583 7219 ft 272 kts 189°
2026-04-22 13:26 34.27700 -118.31730 6910 ft 272 kts 182°
2026-04-22 13:27 34.25807 -118.31448 6637 ft 272 kts 173°
2026-04-22 13:27 34.23957 -118.31010 6377 ft 270 kts 172°
2026-04-22 13:27 34.22130 -118.30570 6119 ft 267 kts 172°
2026-04-22 13:27 34.20302 -118.30131 5862 ft 266 kts 169°
2026-04-22 13:28 34.18619 -118.29206 5709 ft 268 kts 149°
2026-04-22 13:28 34.17039 -118.27988 5583 ft 266 kts 151°
2026-04-22 13:28 34.15458 -118.26901 5434 ft 258 kts 153°
2026-04-22 13:28 34.13850 -118.25982 5285 ft 249 kts 159°
2026-04-22 13:29 34.12294 -118.25177 5196 ft 241 kts 159°
2026-04-22 13:29 34.10751 -118.24369 5188 ft 242 kts 159°
2026-04-22 13:29 34.09208 -118.23551 5058 ft 237 kts 158°
2026-04-22 13:29 34.07712 -118.22759 4797 ft 236 kts 158°
2026-04-22 13:30 34.06143 -118.22253 4490 ft 231 kts 178°
2026-04-22 13:30 34.04563 -118.22061 4208 ft 229 kts 175°
2026-04-22 13:30 34.02980 -118.21811 3893 ft 228 kts 175°
2026-04-22 13:30 34.01403 -118.21599 3581 ft 227 kts 176°
2026-04-22 13:31 33.99838 -118.21513 3318 ft 223 kts 185°
2026-04-22 13:31 33.98383 -118.22001 3053 ft 215 kts 213°
2026-04-22 13:31 33.97306 -118.23189 2765 ft 210 kts 236°
2026-04-22 13:31 33.96688 -118.24728 2493 ft 197 kts 257°
2026-04-22 13:32 33.96541 -118.26317 2202 ft 183 kts 268°
2026-04-22 13:32 33.96441 -118.27843 1984 ft 185 kts 266°
2026-04-22 13:32 33.96318 -118.29359 1751 ft 179 kts 265°
2026-04-22 13:32 33.96173 -118.30763 1597 ft 159 kts 264°
2026-04-22 13:33 33.96026 -118.32102 1414 ft 159 kts 263°
2026-04-22 13:33 33.95892 -118.33374 1144 ft 151 kts 264°
2026-04-22 13:33 33.95774 -118.34639 935 ft 151 kts 265°
2026-04-22 13:33 33.95650 -118.35913 762 ft 156 kts 264°
2026-04-22 13:34 33.95513 -118.37206 601 ft 158 kts 264°
2026-04-22 13:34 33.95382 -118.38519 399 ft 160 kts 264°
2026-04-22 13:34 33.95247 -118.39857 205 ft 159 kts 264°
2026-04-22 13:34 33.95118 -118.41116 136 ft 138 kts 262°
2026-04-22 13:35 33.95016 -118.42113 132 ft 102 kts 263°
2026-04-22 13:35 33.94942 -118.42803 127 ft 52 kts 263°
2026-04-22 13:35 33.94918 -118.43037 124 ft 14 kts 260°
2026-04-22 13:35 33.94849 -118.43093 124 ft 12 kts 178°
2026-04-22 13:36 33.94760 -118.43082 124 ft 13 kts 173°
2026-04-22 13:36 33.94679 -118.43040 124 ft 13 kts 131°
2026-04-22 13:36 33.94621 -118.42935 123 ft 16 kts 108°
2026-04-22 13:36 33.94627 -118.42784 123 ft 18 kts 83°
2026-04-22 13:37 33.94643 -118.42635 125 ft 16 kts 83°
2026-04-22 13:37 33.94657 -118.42505 126 ft 14 kts 83°
2026-04-22 13:37 33.94670 -118.42390 127 ft 12 kts 82°
2026-04-22 13:37 33.94679 -118.42288 128 ft 12 kts 85°
2026-04-22 13:38 33.94692 -118.42170 129 ft 16 kts 83°
2026-04-22 13:38 33.94727 -118.41836 132 ft 18 kts 83°
2026-04-22 13:38 33.94740 -118.41690 133 ft 16 kts 84°
2026-04-22 13:39 33.94754 -118.41561 134 ft 14 kts 81°
2026-04-22 13:39 33.94770 -118.41448 134 ft 12 kts 79°
2026-04-22 13:39 33.94785 -118.41350 135 ft 10 kts 91°
2026-04-22 13:39 33.94728 -118.41293 136 ft 14 kts 169°
2026-04-22 13:40 33.94627 -118.41274 136 ft 14 kts 175°
2026-04-22 13:40 33.94530 -118.41264 135 ft 13 kts 174°
2026-04-22 13:40 33.94439 -118.41248 135 ft 12 kts 172°
2026-04-22 13:40 33.94355 -118.41234 135 ft 11 kts 172°
2026-04-22 13:41 33.94278 -118.41221 136 ft 11 kts 172°
2026-04-22 13:41 33.94191 -118.41209 136 ft 15 kts 175°
2026-04-22 13:41 33.94073 -118.41195 136 ft 17 kts 171°
2026-04-22 13:41 33.93957 -118.41177 136 ft 15 kts 173°
2026-04-22 13:42 33.93872 -118.41157 139 ft 9 kts 147°
2026-04-22 13:42 33.93851 -118.41089 140 ft 9 kts 89°
2026-04-22 13:42 33.93859 -118.40996 141 ft 12 kts 83°
2026-04-22 13:42 33.93870 -118.40891 141 ft 12 kts 83°
2026-04-22 13:43 33.93916 -118.40820 139 ft 12 kts 13°
2026-04-22 13:43 33.94001 -118.40819 139 ft 12 kts 359°
2026-04-22 13:43 33.94066 -118.40816 138 ft 6 kts 22°
2026-04-22 13:43 33.94088 -118.40785 138 ft 3 kts 64°
2026-04-22 13:44 33.94095 -118.40767 138 ft 1 kts 66°
2026-04-22 13:44 33.94099 -118.40756 138 ft 1 kts 68°
2026-04-22 13:44 33.94102 -118.40747 138 ft 0 kts 68°
2026-04-22 13:44 33.94102 -118.40746 138 ft 0 kts 68°